When you browse on this site, cookies collect data to enhance your experience and personalize the content and advertising you see.
Visit our Privacy Policy to learn more. By continuing to use the site, you agree to this use of cookies and data.
  • In Germany
  • List of Countries
  • For 7 days
  • Water Temperature
  • Weather Map
  • Weather Widgets
  • user-avatar
    Login

    Hourly Weather Wavre

    Today, 26 May, Tuesday

    Time Temperature Precipitation Wind Pressure Humidity
    00:00 +12°C° 0 mm 2 mps 770 mmHg 88%
    01:00 +10°C° 0 mm 2 mps 770 mmHg 89%
    02:00 +11°C° 0 mm 1 mps 770 mmHg 90%
    03:00 +11°C° 0 mm 1 mps 770 mmHg 92%
    04:00 +12°C° 0 mm 1 mps 770 mmHg 89%
    05:00 +13°C° 0 mm 1 mps 770 mmHg 87%
    06:00 +14°C° 0 mm 1 mps 770 mmHg 88%
    07:00 +16°C° 0 mm 1 mps 770 mmHg 78%
    08:00 +18°C° 0 mm 1 mps 770 mmHg 69%
    09:00 +19°C° 0 mm 2 mps 770 mmHg 60%
    10:00 +20°C° 0 mm 2 mps 770 mmHg 57%
    11:00 +21°C° 0 mm 3 mps 770 mmHg 53%
    12:00 +22°C° 0 mm 3 mps 770 mmHg 49%
    13:00 +22°C° 0 mm 3 mps 770 mmHg 49%
    14:00 +23°C° 0 mm 4 mps 769 mmHg 49%
    15:00 +23°C° 0 mm 4 mps 769 mmHg 49%
    16:00 +22°C° 0 mm 4 mps 769 mmHg 55%
    17:00 +21°C° 0 mm 3 mps 769 mmHg 61%
    18:00 +20°C° 0 mm 3 mps 769 mmHg 66%
    19:00 +18°C° 0 mm 2 mps 769 mmHg 70%
    20:00 +16°C° 0 mm 2 mps 769 mmHg 74%
    21:00 +14°C° 0 mm 2 mps 770 mmHg 78%
    22:00 +14°C° 0 mm 1 mps 770 mmHg 79%
    23:00 +13°C° 0 mm 1 mps 770 mmHg 81%

    Tomorrow, 27 May, Wednesday

    Time Temperature Precipitation Wind Pressure Humidity
    00:00 +12°C° 0 mm 1 mps 770 mmHg 83%
    01:00 +12°C° 0 mm 1 mps 770 mmHg 83%
    02:00 +12°C° 0 mm 1 mps 769 mmHg 83%
    03:00 +11°C° 0 mm 1 mps 769 mmHg 83%
    04:00 +12°C° 0 mm 0 mps 769 mmHg 80%
    05:00 +13°C° 0 mm 0 mps 769 mmHg 76%
    06:00 +14°C° 0 mm 0 mps 769 mmHg 73%
    07:00 +18°C° 0 mm 1 mps 769 mmHg 68%
    08:00 +19°C° 0 mm 1 mps 769 mmHg 63%
    09:00 +20°C° 0 mm 2 mps 770 mmHg 58%
    10:00 +21°C° 0 mm 2 mps 769 mmHg 56%
    11:00 +23°C° 0 mm 2 mps 769 mmHg 55%
    12:00 +24°C° 0 mm 3 mps 769 mmHg 53%
    13:00 +22°C° 0 mm 3 mps 769 mmHg 56%
    14:00 +22°C° 0 mm 3 mps 768 mmHg 59%
    15:00 +21°C° 0 mm 4 mps 768 mmHg 62%
    16:00 +21°C° 0 mm 4 mps 768 mmHg 63%
    17:00 +20°C° 0 mm 4 mps 768 mmHg 65%
    18:00 +19°C° 0 mm 4 mps 768 mmHg 66%
    19:00 +17°C° 0 mm 3 mps 768 mmHg 68%
    20:00 +14°C° 0 mm 3 mps 769 mmHg 70%
    21:00 +12°C° 0 mm 3 mps 769 mmHg 71%
    22:00 +12°C° 0 mm 3 mps 769 mmHg 77%
    23:00 +11°C° 0 mm 3 mps 769 mmHg 82%

    Day after tomorrow, 28 May, Thursday

    Time Temperature Precipitation Wind Pressure Humidity
    00:00 +10°C° 0 mm 3 mps 769 mmHg 88%
    01:00 +10°C° 0 mm 3 mps 769 mmHg 86%
    02:00 +9°C° 0 mm 3 mps 769 mmHg 84%
    03:00 +9°C° 0 mm 3 mps 769 mmHg 83%
    04:00 +8°C° 0 mm 4 mps 769 mmHg 80%
    05:00 +10°C° 0 mm 4 mps 769 mmHg 77%
    06:00 +10°C° 0 mm 5 mps 769 mmHg 74%
    07:00 +13°C° 0 mm 5 mps 769 mmHg 69%
    08:00 +14°C° 0 mm 5 mps 769 mmHg 64%
    09:00 +16°C° 0 mm 5 mps 769 mmHg 58%
    10:00 +17°C° 0 mm 5 mps 768 mmHg 55%
    11:00 +19°C° 0 mm 5 mps 768 mmHg 51%
    12:00 +20°C° 0 mm 5 mps 767 mmHg 48%
    13:00 +20°C° 0 mm 5 mps 767 mmHg 48%
    14:00 +20°C° 0 mm 5 mps 767 mmHg 48%
    15:00 +21°C° 0 mm 5 mps 766 mmHg 48%
    16:00 +20°C° 0 mm 5 mps 766 mmHg 53%
    17:00 +19°C° 0 mm 4 mps 766 mmHg 58%
    18:00 +18°C° 0 mm 4 mps 766 mmHg 62%
    19:00 +17°C° 0 mm 4 mps 766 mmHg 66%
    20:00 +14°C° 0 mm 4 mps 766 mmHg 70%
    21:00 +12°C° 0 mm 3 mps 766 mmHg 74%
    22:00 +11°C° 0 mm 3 mps 766 mmHg 76%
    23:00 +10°C° 0 mm 3 mps 766 mmHg 78%

    29 May, Friday

    Time Temperature Precipitation Wind Pressure Humidity
    00:00 +9°C° 0 mm 3 mps 766 mmHg 80%
    01:00 +9°C° 0 mm 3 mps 766 mmHg 83%
    02:00 +8°C° 0 mm 3 mps 766 mmHg 85%
    03:00 +8°C° 0 mm 2 mps 765 mmHg 88%
    04:00 +9°C° 0 mm 3 mps 765 mmHg 84%
    05:00 +10°C° 0 mm 3 mps 765 mmHg 80%
    06:00 +11°C° 0 mm 3 mps 765 mmHg 76%
    07:00 +13°C° 0 mm 3 mps 765 mmHg 68%
    08:00 +15°C° 0 mm 4 mps 765 mmHg 61%
    09:00 +17°C° 0 mm 4 mps 765 mmHg 53%
    10:00 +18°C° 0 mm 4 mps 764 mmHg 50%
    11:00 +19°C° 0 mm 5 mps 764 mmHg 48%
    12:00 +20°C° 0 mm 5 mps 764 mmHg 45%
    13:00 +20°C° 0 mm 5 mps 763 mmHg 46%
    14:00 +20°C° 0 mm 4 mps 763 mmHg 47%
    15:00 +21°C° 0 mm 4 mps 763 mmHg 48%
    16:00 +20°C° 0 mm 4 mps 762 mmHg 53%
    17:00 +19°C° 0 mm 4 mps 762 mmHg 58%
    18:00 +19°C° 0 mm 4 mps 762 mmHg 63%
    19:00 +17°C° 0 mm 4 mps 762 mmHg 68%
    20:00 +14°C° 0 mm 4 mps 762 mmHg 72%
    21:00 +13°C° 0 mm 4 mps 763 mmHg 77%
    22:00 +12°C° 0 mm 3 mps 763 mmHg 81%
    23:00 +11°C° 0 mm 3 mps 763 mmHg 85%

    30 May, Saturday

    Time Temperature Precipitation Wind Pressure Humidity
    00:00 +10°C° 0 mm 3 mps 763 mmHg 88%
    01:00 +10°C° 0 mm 3 mps 762 mmHg 89%
    02:00 +10°C° 0 mm 2 mps 762 mmHg 90%
    03:00 +9°C° 0 mm 2 mps 762 mmHg 91%
    04:00 +10°C° 0 mm 2 mps 762 mmHg 87%
    05:00 +12°C° 0 mm 2 mps 762 mmHg 83%
    06:00 +14°C° 0 mm 2 mps 762 mmHg 79%
    07:00 +14°C° 0 mm 3 mps 762 mmHg 71%
    08:00 +17°C° 0 mm 3 mps 762 mmHg 64%
    09:00 +19°C° 0 mm 3 mps 762 mmHg 57%
    10:00 +20°C° 0 mm 3 mps 762 mmHg 54%
    11:00 +21°C° 0 mm 3 mps 761 mmHg 51%
    12:00 +22°C° 0 mm 4 mps 761 mmHg 48%
    13:00 +22°C° 0 mm 4 mps 761 mmHg 48%
    14:00 +22°C° 0 mm 3 mps 760 mmHg 47%
    15:00 +24°C° 0 mm 3 mps 760 mmHg 46%
    16:00 +22°C° 0 mm 3 mps 760 mmHg 51%
    17:00 +21°C° 0 mm 3 mps 760 mmHg 56%
    18:00 +21°C° 0 mm 3 mps 760 mmHg 61%
    19:00 +19°C° 0 mm 3 mps 760 mmHg 65%
    20:00 +17°C° 0 mm 3 mps 760 mmHg 70%
    21:00 +14°C° 0 mm 3 mps 760 mmHg 74%
    22:00 +13°C° 0 mm 3 mps 760 mmHg 77%
    23:00 +12°C° 0 mm 3 mps 760 mmHg 79%

    31 May, Sunday

    Time Temperature Precipitation Wind Pressure Humidity
    00:00 +12°C° 0 mm 2 mps 760 mmHg 82%
    01:00 +12°C° 0 mm 2 mps 760 mmHg 83%
    02:00 +10°C° 0 mm 2 mps 760 mmHg 85%
    03:00 +10°C° 0 mm 2 mps 760 mmHg 87%
    04:00 +12°C° 0 mm 2 mps 760 mmHg 83%
    05:00 +13°C° 0 mm 2 mps 760 mmHg 79%
    06:00 +14°C° 0 mm 2 mps 760 mmHg 75%
    07:00 +16°C° 0 mm 2 mps 760 mmHg 68%
    08:00 +18°C° 0 mm 2 mps 760 mmHg 62%
    09:00 +20°C° 0 mm 2 mps 760 mmHg 56%
    10:00 +21°C° 0 mm 3 mps 760 mmHg 53%
    11:00 +22°C° 0 mm 3 mps 759 mmHg 51%
    12:00 +24°C° 0 mm 3 mps 759 mmHg 49%
    13:00 +24°C° 0 mm 3 mps 759 mmHg 48%
    14:00 +24°C° 0 mm 3 mps 759 mmHg 47%
    15:00 +24°C° 0 mm 3 mps 758 mmHg 46%
    16:00 +22°C° 0 mm 3 mps 758 mmHg 49%
    17:00 +21°C° 0 mm 3 mps 758 mmHg 53%
    18:00 +21°C° 0 mm 3 mps 758 mmHg 57%
    19:00 +19°C° 0 mm 3 mps 758 mmHg 58%
    20:00 +17°C° 0 mm 4 mps 758 mmHg 58%
    21:00 +14°C° 0 mm 4 mps 759 mmHg 59%
    22:00 +13°C° 0 mm 3 mps 759 mmHg 62%
    23:00 +12°C° 0 mm 3 mps 759 mmHg 64%
    Show more